Content
SEND FEEDBACK

Daily
Averages
Monthly
Summary
Greece

ANDRAVIDHA, GREECE


Home > Europe > Greece
Elevation: 50 feet     Latitude: 37 55N     Longitude: 021 17E

WEATHER
 
SELECT A DAY
Number of Records: 87,508;   Date Range: 7/11/96 - 7/28/14
 
SHARE

PRINT THIS DATA

[ ← Previous Day ]
WEATHER ALMANAC - MAY 12, 2013
[ Next Day → ]
[ °C ]   °F
Weather ElementAverageHighLow
Temperature69.1 °F77 °F (12:50 pm)60.8 °F (5:50 am)
Dewpoint57.5 °F60.8 °F (8:20 am)53.6 °F (8:50 pm)
Humidity66.9 %94 % (7:20 am)39 % (3:00 pm)
Barometer29.76 in29.83 in (12:50 am)29.71 in (4:50 pm)
Wind Speed4.8 mph13.8 mph (4:50 pm)
Weather ElementAverage
Visibility6.2 mi
Wind DirectionSSE (168.8 °)

Weather ElementTotal
Precipitation---
Cooling Degree Days3.9 (Base 65)
Growing Degree Days18.9 (Base 50)
Averaged from 43 records on May 12, 2013
WEATHER CONDITIONS BREAKOUT
WIND DIRECTION BREAKOUT
WEATHER BY HOUR - MAY 12, 2013
[ °C ]   °F
Local TimeTemperatureDewpointHumidityBarometerVisibilityWind DirectionWind SpeedGust SpeedPrecipitationEventsConditions
12:50 AM62.6 °F59.0 °F88 %29.83 in6.2 miCalmPartly Cloudy
2:50 AM62.6 °F59.0 °F88 %29.83 in6.2 miCalmPartly Cloudy
3:00 AM62.0 °F59.0 °F85 %29.81 in6.0 miCalmScattered Clouds
4:50 AM62.6 °F59.0 °F88 %29.77 in6.2 miCalmPartly Cloudy
5:50 AM60.8 °F57.2 °F88 %29.77 in6.2 miCalmScattered Clouds
6:20 AM60.8 °F57.2 °F88 %29.77 in6.2 miCalmScattered Clouds
6:50 AM60.8 °F57.2 °F88 %29.77 in6.2 miCalmScattered Clouds
7:20 AM60.8 °F59.0 °F94 %29.77 in6.2 miCalmScattered Clouds
7:50 AM62.6 °F59.0 °F88 %29.77 in6.2 miCalmScattered Clouds
8:20 AM66.2 °F60.8 °F83 %29.77 in6.2 miSE (130°)4.6 mphScattered Clouds
8:50 AM69.8 °F60.8 °F73 %29.77 in6.2 miCalmScattered Clouds
9:00 AM70.0 °F60.0 °F63 %29.78 in6.0 miCalmPartly Cloudy
9:20 AM69.8 °F60.8 °F73 %29.77 in6.2 miCalmScattered Clouds
9:50 AM69.8 °F59.0 °F68 %29.77 inCalmClear
10:20 AM69.8 °F59.0 °F68 %29.77 inCalmClear
10:50 AM73.4 °F59.0 °F61 %29.77 in6.2 miSSW (200°)4.6 mphScattered Clouds
11:20 AM73.4 °F59.0 °F61 %29.77 in6.2 miSSW (200°)4.6 mphScattered Clouds
11:50 AM75.2 °F57.2 °F53 %29.77 in6.2 miCalmScattered Clouds
12:50 PM77.0 °F55.4 °F47 %29.74 in6.2 miSSW (200°)4.6 mphScattered Clouds
1:20 PM77.0 °F55.4 °F47 %29.74 in6.2 miSSW (200°)4.6 mphScattered Clouds
1:50 PM73.4 °F57.2 °F57 %29.74 in6.2 miSW (220°)9.2 mphScattered Clouds
2:20 PM73.4 °F57.2 °F57 %29.74 in6.2 miSW (220°)9.2 mphScattered Clouds
2:50 PM77.0 °F57.2 °F50 %29.74 in6.2 miSSW (210°)6.9 mphScattered Clouds
3:00 PM77.0 °F57.0 °F39 %29.75 in6.0 miSSW (210°)6.9 mphPartly Cloudy
3:20 PM77.0 °F57.2 °F50 %29.74 in6.2 miSSW (210°)6.9 mphScattered Clouds
3:50 PM73.4 °F59.0 °F61 %29.74 in6.2 miWest (280°)11.5 mphScattered Clouds
4:20 PM73.4 °F59.0 °F61 %29.74 in6.2 miWest (280°)11.5 mphScattered Clouds
4:50 PM73.4 °F57.2 °F57 %29.71 in6.2 miWest (270°)13.8 mphScattered Clouds
5:20 PM73.4 °F57.2 °F57 %29.71 in6.2 miWest (270°)13.8 mphScattered Clouds
5:50 PM71.6 °F59.0 °F64 %29.74 in6.2 miWest (280°)11.5 mphScattered Clouds
6:20 PM71.6 °F59.0 °F64 %29.74 in6.2 miWest (280°)11.5 mphScattered Clouds
6:50 PM71.6 °F57.2 °F60 %29.74 in6.2 miWNW (290°)6.9 mphScattered Clouds
7:20 PM71.6 °F57.2 °F60 %29.74 in6.2 miWNW (290°)6.9 mphScattered Clouds
7:50 PM69.8 °F55.4 °F60 %29.74 in6.2 miWest (270°)9.2 mphScattered Clouds
8:20 PM69.8 °F55.4 °F60 %29.74 in6.2 miWest (270°)9.2 mphScattered Clouds
8:50 PM66.2 °F53.6 °F64 %29.77 in6.2 miWNW (300°)4.6 mphPartly Cloudy
9:00 PM67.0 °F54.0 °F54 %29.78 in6.0 miWNW (300°)4.6 mphScattered Clouds
9:20 PM66.2 °F53.6 °F64 %29.77 in6.2 miWNW (300°)4.6 mphPartly Cloudy
9:50 PM66.2 °F55.4 °F68 %29.77 in6.2 miNW (320°)6.9 mphPartly Cloudy
10:20 PM66.2 °F55.4 °F68 %29.77 in6.2 miNW (320°)6.9 mphPartly Cloudy
10:50 PM66.2 °F55.4 °F68 %29.77 in6.2 miWNW (300°)4.6 mphPartly Cloudy
11:20 PM66.2 °F55.4 °F68 %29.77 in6.2 miWNW (300°)4.6 mphPartly Cloudy
11:50 PM64.4 °F55.4 °F73 %29.77 in6.2 miCalmPartly Cloudy
Hourly data recorded from LGAD, located miles away from Andravidha, Greece







STORIES FROM OUR PARTNERS